#timestamp,LO_Frequency,Hit,StdDev 
1646992815.2,286047000.7,N
1646992835.0,286047001.0,N
1646992835.9,286047001.0,N
1646992855.7,286047002.2,N
1646992875.6,286047002.2,N
1646992895.4,286046999.9,N
1646992915.3,286047001.0,N
1646992935.1,286046998.1,N
1646992936.0,286046998.1,N
1646992955.8,286047001.9,N
1646992975.7,286047004.4,N
1646992995.5,286047001.3,N
1646993015.4,286047002.3,N
1646993035.2,286047000.2,N
1646993055.0,286047000.6,N
1646993055.9,286047000.6,N
1646993075.8,286047000.9,N
1646993095.6,286047001.0,N
1646993115.4,286047000.4,N
1646993165.3,286047001.6,E
1646993175.2,286047000.7,N
1646993195.1,286046998.4,P
1646993196.0,286046998.4,N
1646993215.8,286046999.0,N
1646993235.7,286046998.6,N
1646993255.5,286047001.1,N
1646993275.3,286047001.2,N
1646993295.2,286047000.4,N
1646993315.0,286047004.4,Y
1646993315.9,286047004.4,P
1646993335.8,286047004.2,N
1646993355.6,286047002.4,N
1646993375.4,286047000.9,N
1646993395.3,286047000.6,N
1646993415.1,286047002.3,N
1646993435.9,286047000.6,N
1646993455.7,286046998.9,N
1646993475.5,286047000.7,N
1646993495.4,286047000.5,N
1646993515.2,286047001.5,N
1646993535.1,286047001.8,N
1646993536.0,286047001.8,N
1646993555.8,286047002.4,N
1646993575.6,286047000.5,N
1646993595.5,286047000.4,N
1646993615.3,286046998.8,N
1646993635.1,286046999.2,N
1646993655.9,286046998.2,N
1646993675.7,286046998.9,N
1646993695.6,286047001.1,N
1646993715.4,286047000.9,N
1646993735.2,286047001.1,N
1646993755.1,286047002.4,N
1646993756.0,286047002.4,N
1646993775.8,286046999.7,N
1646993795.7,286047002.6,N
1646993815.5,286047001.5,N
1646993835.3,286047000.6,N
1646993855.2,286047000.4,N
1646993875.0,286047000.6,N
1646993875.9,286047000.6,N
1646993895.8,286046998.8,N
1646993915.6,286046998.8,N
1646993935.4,286047001.1,N
1646993955.3,286047000.8,N
1646993975.1,286047000.6,N
1646993995.8,286047000.9,N
1646994015.7,286047002.5,N
1646994035.5,286047002.6,N
1646994055.4,286047000.5,N
1646994075.2,286047000.8,N
1646994095.0,286047000.6,N
1646994095.9,286047000.6,N
1646994115.8,286047002.0,N
1646994135.6,286047000.4,N
1646994155.5,286046999.7,N
1646994175.3,286047002.6,N
1646994195.1,286047000.3,N
1646994215.9,286047000.6,N
1646994235.7,286047000.4,N
1646994255.5,286046999.9,N
1646994275.4,286047000.2,N
1646994295.2,286047000.8,N
1646994315.1,286047001.0,N
1646994316.0,286047001.0,N
1646994335.8,286047001.1,N
1646994355.6,286047000.3,N
1646994375.5,286046999.9,N
1646994395.6,286047001.0,N
1646994415.4,286046998.2,N
1646994435.2,286047000.4,N
1646994455.1,286046998.5,N
1646994456.0,286046998.5,N
1646994475.8,286046998.5,N
1646994495.7,286047000.6,N
1646994515.5,286047000.6,N
1646994535.3,286046998.3,N
1646994555.2,286046998.4,N
1646994575.0,286046999.0,N
1646994575.9,286046999.0,N
1646994595.7,286046999.3,N
1646994615.6,286046997.1,N
1646994635.4,286046997.3,N
1646994655.3,286046995.2,Y
1646994675.1,286046995.7,P
1646994676.0,286046995.7,N
1646994695.8,286046997.7,N
1646994715.7,286046993.3,Y
1646994735.5,286046998.3,P
1646994755.4,286046998.2,P
1646994775.2,286046998.2,P
1646994795.0,286046996.6,Y
1646994795.9,286046996.6,P
1646994815.8,286047000.3,N
1646994835.6,286047000.0,N
1646994855.4,286047000.5,N
1646994875.3,286047001.5,N
1646994895.1,286047001.5,N
1646994915.9,286046999.7,N
1646994935.7,286047000.6,N
1646994955.5,286046998.3,N
1646994975.4,286046998.8,N
1646994995.2,286046999.4,N
1646995015.1,286047001.1,N
1646995016.0,286047001.1,N
1646995035.8,286047000.5,N
1646995055.6,286047000.9,N
1646995075.5,286046998.7,N
1646995095.3,286046996.9,N
1646995115.2,286046996.5,N
1646995135.9,286046996.9,N
1646995155.7,286046996.8,N
1646995175.6,286046997.4,N
1646995195.4,286046996.5,N
1646995215.2,286046997.1,N
1646995235.0,286046999.1,N
1646995235.9,286046999.1,N
1646995255.8,286046998.2,N
1646995275.6,286046998.8,N
1646995295.5,286046999.0,N
1646995315.3,286046998.3,N
1646995335.1,286046998.3,N
1646995355.9,286047000.8,N
1646995375.7,286047001.2,N
1646995395.5,286047000.7,N
1646995415.4,286047000.9,N
1646995435.2,286046998.3,N
1646995455.1,286046999.4,N
1646995456.0,286046999.4,N
1646995475.8,286046996.7,N
1646995495.6,286046999.2,N
1646995515.5,286046996.5,N
1646995535.3,286046996.8,N
1646995555.1,286046999.0,N
1646995575.9,286046998.3,N
1646995595.7,286046996.7,N
1646995615.5,286046997.0,N
1646995635.4,286046996.8,N
1646995655.2,286046998.0,N
1646995675.1,286046997.1,N
1646995676.0,286046997.1,N
1646995695.8,286046996.8,N
1646995715.6,286046996.5,N
1646995735.5,286046997.7,N
1646995755.3,286046995.0,Y
1646995775.2,286046996.8,P
1646995795.9,286046997.2,P
1646995815.7,286046995.4,P
1646995835.6,286046993.7,Y
1646995855.4,286046999.0,P
1646995875.3,286046998.2,N
1646995895.1,286047000.8,N
1646995896.0,286047000.8,N
1646995915.8,286046998.6,N
1646995935.7,286046998.6,N
1646995955.5,286046998.4,N
1646995975.4,286046998.3,N
1646995995.2,286046998.6,N
1646996015.0,286046996.5,Y
1646996015.9,286046996.5,P
1646996035.8,286047001.1,N
1646996055.6,286046998.3,N
1646996075.5,286046999.2,N
1646996095.3,286046996.9,N
1646996115.1,286046996.7,N
1646996135.9,286046997.0,N
1646996155.7,286046997.1,N
1646996175.6,286046998.3,N
1646996195.4,286046998.2,N
1646996215.2,286046998.3,N
1646996235.1,286046998.5,N
1646996236.0,286046998.5,N
1646996255.8,286046998.6,N
1646996275.6,286046998.7,N
1646996295.5,286046999.1,N
1646996315.3,286046996.9,N
1646996335.2,286046999.1,N
1646996355.9,286046998.8,N
1646996375.7,286046999.5,N
1646996395.6,286046998.4,N
